Weather History for Vero Beach, FL

Change the Weather History Date:

Monday, December 9, 2013

  Actual Average Record
Temperature  
Mean Temperature 73 °F 66 °F  
Max Temperature 83 °F 75 °F 87 °F (2009)
Min Temperature 63 °F 56 °F 38 °F (1984)
Degree Days  
Heating Degree Days 0 3  
Month to date heating degree days 1 20  
Since 1 July heating degree days 12 50  
Cooling Degree Days 8 3  
Month to date cooling degree days 46 34  
Year to date cooling degree days 3519 3345  
Growing Degree Days 22 (Base 50)    
Moisture  
Dew Point 67 °F    
Average Humidity 78    
Maximum Humidity 100    
Minimum Humidity 55    
Precipitation  
Precipitation 0.06 in 0.06 in 1.91 in (2002)
Month to date precipitation 1.86 0.66  
Year to date precipitation 44.07 50.34  
Sea Level Pressure  
Sea Level Pressure 30.17 in    
Wind  
Wind Speed 7 mph (SSE)    
Max Wind Speed 20 mph    
Max Gust Speed 25 mph    
Visibility 8 miles    
Events Fog , Rain    
T = Trace of Precipitation, MM = Missing Value Source: NWS Daily Summary

Daily Weather History Graph

Daily Weather History Graph

Search for Another Location

Airport:

Trip Planner

Search our weather history database for the weather conditions in past years. The results will help you decide how hot, cold, wet, or windy it might be!

Date:

Astronomy

Dec. 09, 2013 Rise Set
Actual Time 7:00 AM EST 5:27 PM EST
Civil Twilight 6:35 AM EST 5:52 PM EST
Nautical Twilight 6:06 AM EST 6:21 PM EST
Astronomical Twilight 5:37 AM EST 6:50 PM EST
Moon 12:23 PM EST (12/9) No Moon Set
Length of Visible Light 11h 17m
Length of Day
10h 26m
Waxing Crescent, 51% of the Moon is Illuminated
Dec 9
Waxing Crescent
Dec 17
Full
Dec 25
Last Quarter
Jan 1
New
Jan 7
First Quarter

Hourly Weather History & Observations

Time (EST) Temp. Heat Index Dew Point Humidity Pressure Visibility Wind Dir Wind Speed Gust Speed Precip Events Conditions
12:53 AM 64.9 °F - 64.9 °F 100% 30.17 in 7.0 mi Calm Calm - N/A   Clear
1:53 AM 68.0 °F - 68.0 °F 100% 30.17 in 3.0 mi SE 3.5 mph - 0.03 in Rain Rain
2:07 AM 69.8 °F - 69.8 °F 100% 30.17 in 5.0 mi Calm Calm - 0.02 in Rain Light Rain
2:25 AM 71.6 °F - 71.6 °F 100% 30.17 in 10.0 mi Calm Calm - 0.03 in   Overcast
2:53 AM 70.0 °F - 70.0 °F 100% 30.17 in 10.0 mi Calm Calm - 0.03 in   Overcast
3:53 AM 68.0 °F - 68.0 °F 100% 30.17 in 10.0 mi NW 3.5 mph - N/A   Mostly Cloudy
4:53 AM 66.9 °F - 66.9 °F 100% 30.16 in 9.0 mi Calm Calm - N/A   Mostly Cloudy
5:53 AM 66.0 °F - 66.0 °F 100% 30.17 in 1.2 mi Calm Calm - N/A   Partly Cloudy
6:20 AM 64.4 °F - 64.4 °F 100% 30.19 in 0.5 mi Calm Calm - N/A Fog Fog
6:49 AM 64.4 °F - 64.4 °F 100% 30.19 in 1.5 mi Calm Calm - N/A   Mostly Cloudy
6:53 AM 63.0 °F - 63.0 °F 100% 30.19 in 7.0 mi Calm Calm - N/A   Scattered Clouds
6:56 AM 62.6 °F - 62.6 °F 100% 30.19 in 7.0 mi Calm Calm - N/A   Scattered Clouds
7:53 AM 66.0 °F - 66.0 °F 100% 30.19 in 8.0 mi Calm Calm - N/A   Clear
8:53 AM 75.0 °F - 71.1 °F 87% 30.20 in 10.0 mi South 4.6 mph - N/A   Clear
9:53 AM 78.1 °F - 71.1 °F 79% 30.21 in 10.0 mi SSE 8.1 mph - N/A   Clear
10:53 AM 81.0 °F 84.1 °F 69.1 °F 67% 30.20 in 10.0 mi SSE 13.8 mph 20.7 mph N/A   Clear
11:53 AM 81.0 °F 83.8 °F 68.0 °F 65% 30.18 in 10.0 mi SE 18.4 mph - N/A   Clear
12:53 PM 82.0 °F 84.1 °F 66.0 °F 58% 30.15 in 10.0 mi SE 16.1 mph - N/A   Clear
1:53 PM 82.0 °F 84.5 °F 66.9 °F 60% 30.13 in 10.0 mi SE 15.0 mph - N/A   Clear
2:53 PM 82.0 °F 83.8 °F 64.9 °F 56% 30.12 in 10.0 mi SE 15.0 mph - N/A   Scattered Clouds
3:53 PM 80.1 °F 82.1 °F 66.0 °F 62% 30.12 in 10.0 mi SE 13.8 mph - N/A   Clear
4:53 PM 78.1 °F - 66.9 °F 68% 30.14 in 10.0 mi SE 11.5 mph - N/A   Scattered Clouds
5:53 PM 75.0 °F - 69.1 °F 82% 30.14 in 10.0 mi SE 9.2 mph - N/A   Clear
6:53 PM 73.9 °F - 68.0 °F 82% 30.15 in 10.0 mi SSE 8.1 mph - N/A   Clear
7:53 PM 72.0 °F - 68.0 °F 87% 30.17 in 10.0 mi SSE 5.8 mph - N/A   Clear
8:53 PM 71.1 °F - 66.9 °F 87% 30.17 in 10.0 mi SSE 6.9 mph - N/A   Clear
9:53 PM 70.0 °F - 64.9 °F 84% 30.17 in 10.0 mi SSE 6.9 mph - N/A   Clear
10:53 PM 68.0 °F - 63.0 °F 84% 30.17 in 10.0 mi SSE 5.8 mph - N/A   Clear
11:53 PM 66.9 °F - 62.1 °F 84% 30.16 in 10.0 mi South 4.6 mph - N/A   Clear